[[{"header":{"parameterUnit":"m.s-1","parameterCategory":2,"la1":30.2991,"la2":30.254,"lo1":-89.0895,"lo2":-89.0444,"dy":0.0017,"dx":0.0017,"nx":28,"ny":28,"refTime":"2023-09-08T03:00:00:Z","depth":"0","parameterNumber":2,"parameterNumberName":"U-component_of_CURRENTS"},"data":[0,0,0,0,0,0,0,0,0,0,0,0,0,0,0,0,0,0,0,0,0,0,0,0,0,0,0,0,0,0,0,0,0,0,0,0,0,0,0,0,0,0,0,0,0,0,0,0,0,0,0,0,0,0,0,0,0,0,-0.2997,-0.2998,0,-0.3058,-0.3058,-0.3059,-0.3052,-0.3051,-0.3051,-0.305,-0.3075,-0.3076,-0.3077,0,0,0,0,0,0,0,0,0,0,0,0,0,-0.2807,-0.281,-0.2997,-0.2998,-0.3,-0.3058,-0.3058,-0.3059,-0.3052,-0.3051,-0.3051,-0.305,-0.3075,-0.3076,-0.3077,0,0,0,0,0,0,0,0,0,0,0,0,0,-0.2876,-0.2812,-0.2997,-0.3007,-0.3009,-0.3058,-0.3058,-0.3059,-0.3052,-0.3051,-0.3051,-0.305,-0.3074,-0.3076,-0.3077,-0.3102,0,0,-0.3082,-0.3083,0,0,0,0,0,0,0,0,-0.2872,-0.2882,-0.3004,-0.3007,-0.3009,-0.3051,-0.3001,-0.3073,-0.3052,-0.303,-0.305,-0.305,-0.3068,-0.307,-0.3076,-0.3103,-0.3104,-0.3083,-0.3084,-0.3084,-0.3085,0,0,0,0,0,0,0,-0.2867,-0.2879,-0.3016,-0.3006,-0.3009,-0.2986,-0.2995,-0.3014,-0.3047,-0.3032,-0.3033,-0.3048,-0.3068,-0.3074,-0.3076,-0.3104,-0.3083,-0.3084,-0.3085,-0.3086,-0.3108,-0.3108,0,0,0,0,0,0,-0.2876,-0.2876,-0.3014,-0.3018,-0.2943,-0.2991,-0.3,-0.3034,-0.3048,-0.3051,-0.3049,-0.3048,-0.3072,-0.3074,-0.3077,-0.3038,-0.3084,-0.3086,-0.3087,-0.3109,-0.3108,-0.3108,0,0,0,0,0,0,-0.2872,-0.2888,-0.3012,-0.2951,-0.2966,-0.2996,-0.3033,-0.3036,-0.304,-0.3062,-0.3064,-0.305,-0.3071,-0.3075,-0.3092,-0.3041,-0.3087,-0.3088,-0.3109,-0.3109,-0.3108,-0.3003,0,0,0,0,0,0,-0.2866,-0.2887,-0.2895,-0.2952,-0.297,-0.3019,-0.3034,-0.3038,-0.3053,-0.3052,-0.3064,-0.3066,-0.3071,-0.309,-0.3094,-0.3044,-0.3089,-0.311,-0.3109,-0.3108,-0.3007,-0.2999,-0.2993,0,0,0,0,0,-0.286,-0.2855,-0.2895,-0.2911,-0.2987,-0.3019,-0.3024,-0.3039,-0.3054,-0.3042,-0.3066,-0.3065,-0.3087,-0.3092,-0.3096,-0.3046,-0.311,-0.3109,-0.3108,-0.3011,-0.3001,-0.2993,0,0,0,0,0,0,-0.2758,-0.2857,-0.2901,-0.2925,-0.297,-0.3019,-0.3002,-0.304,-0.3052,-0.3048,-0.3075,-0.3078,-0.3063,-0.3089,-0.3094,-0.3054,-0.3093,-0.3093,-0.3017,-0.3008,-0.3001,-0.2961,-0.3091,0,0,0,0,0,-0.2753,-0.2778,-0.2872,-0.2883,-0.2907,-0.2965,-0.2977,-0.3002,-0.3032,-0.3036,-0.305,-0.3064,-0.3065,-0.3067,-0.3071,-0.3068,-0.3066,-0.3037,-0.3029,-0.3023,-0.2996,-0.2976,-0.2963,-0.3105,-0.3105,-0.3105,0,0,-0.2713,-0.277,-0.2783,-0.2863,-0.2894,-0.2907,-0.2966,-0.2981,-0.2975,-0.3038,-0.3012,-0.3038,-0.3061,-0.3038,-0.3033,-0.3052,-0.2981,-0.3022,-0.3015,-0.2992,-0.2973,-0.2959,-0.2946,-0.3104,-0.3104,-0.3105,0,0,-0.2641,-0.2705,-0.2708,-0.2744,-0.2808,-0.2846,-0.2856,-0.2916,-0.292,-0.2936,-0.296,-0.296,-0.2984,-0.2967,-0.297,-0.2934,-0.2942,-0.2944,-0.2869,-0.285,-0.2837,-0.2826,-0.2795,-0.2781,-0.294,-0.294,-0.294,0,-0.2594,-0.2628,-0.2703,-0.2711,-0.2732,-0.2818,-0.282,-0.2831,-0.2882,-0.289,-0.2908,-0.2924,-0.2933,-0.29,-0.2875,-0.2906,-0.2908,-0.2896,-0.2836,-0.2825,-0.2815,-0.2786,-0.2773,-0.2935,-0.2936,-0.2936,-0.2937,0,-0.2535,-0.256,-0.2552,-0.2606,-0.2627,-0.2638,-0.2695,-0.2705,-0.2741,-0.2769,-0.276,-0.2781,-0.2795,-0.2788,-0.2815,-0.2752,-0.2779,-0.2825,-0.2848,-0.2793,-0.2768,-0.2755,-0.2928,-0.2929,-0.2931,-0.2932,0,0,-0.2453,-0.2509,-0.2507,-0.2527,-0.2585,-0.2603,-0.2587,-0.2622,-0.2624,-0.264,-0.2634,-0.2611,-0.2648,-0.2653,-0.2684,-0.2652,-0.2572,-0.2702,-0.2704,-0.2651,-0.2522,-0.2465,-0.2447,-0.2618,-0.2615,-0.2614,-0.2528,0,-0.2398,-0.2397,-0.2439,-0.2426,-0.244,-0.2505,-0.2492,-0.2521,-0.2554,-0.2559,-0.2569,-0.257,-0.259,-0.2605,-0.2569,-0.2596,-0.2538,-0.259,-0.2601,-0.26,-0.2539,-0.243,-0.2341,-0.2251,-0.2516,-0.2514,-0.2513,0,-0.2338,-0.2355,-0.234,-0.2383,-0.2395,-0.2387,-0.242,-0.2423,-0.2445,-0.2472,-0.2472,-0.2507,-0.2465,-0.2499,-0.2449,-0.2493,-0.2475,-0.2476,-0.2475,-0.2444,-0.2519,-0.2354,-0.2219,-0.2206,-0.2494,-0.2496,-0.2497,0,-0.2264,-0.2289,-0.228,-0.2289,-0.2337,-0.2335,-0.2359,-0.239,-0.2401,-0.2416,-0.2433,-0.2416,-0.2417,-0.2391,-0.2396,-0.2426,-0.2345,-0.2399,-0.2311,-0.2309,-0.2241,-0.2235,-0.2072,-0.2311,-0.2311,-0.2312,-0.2312,0,-0.2201,-0.2191,-0.2245,-0.2237,-0.2228,-0.2282,-0.2275,-0.2302,-0.2336,-0.2332,-0.238,-0.2367,-0.2391,-0.2371,-0.2363,-0.229,-0.2316,-0.2248,-0.2263,-0.2203,-0.2195,-0.2192,-0.223,-0.2309,-0.2309,-0.231,-0.231,0,-0.2105,-0.2143,-0.2135,-0.2179,-0.2189,-0.2178,-0.2224,-0.2222,-0.2274,-0.2269,-0.2272,-0.2316,-0.2288,-0.23,-0.2265,-0.2239,-0.2144,-0.2154,-0.2073,-0.2077,-0.1971,-0.2008,-0.1863,-0.181,-0.2021,-0.2019,-0.2017,0,-0.2051,-0.2039,-0.2074,-0.2067,-0.2079,-0.2087,-0.209,-0.2162,-0.2169,-0.2224,-0.2206,-0.2207,-0.2178,-0.2119,-0.2075,-0.2014,-0.2039,-0.1898,-0.191,-0.1893,-0.1949,-0.1983,-0.1952,-0.1784,-0.178,-0.1777,-0.1775,0,-0.1942,-0.1958,-0.1955,-0.1949,-0.1945,-0.1956,-0.1974,-0.198,-0.2055,-0.207,-0.2074,-0.2061,-0.2013,-0.1919,-0.1859,-0.1818,-0.1846,-0.1832,-0.1833,-0.1729,-0.1736,-0.1718,-0.1923,-0.1748,-0.1751,-0.1753,-0.1754,-0.1755,-0.1847,-0.182,-0.1823,-0.1806,-0.1812,-0.1809,-0.1776,-0.182,-0.1824,-0.1824,-0.1891,-0.1854,-0.1814,-0.1711,-0.1663,-0.1563,-0.1628,-0.1528,-0.1568,-0.1599,-0.1544,-0.1671,-0.1513,-0.1514,-0.1515,-0.1516,-0.1517,0,-0.1719,-0.1701,-0.1683,-0.1659,-0.1624,-0.1675,-0.1676,-0.1632,-0.1596,-0.1646,-0.1634,-0.1627,-0.1517,-0.15,-0.1409,-0.1336,-0.1314,-0.1314,-0.1343,-0.132,-0.143,-0.1415,-0.1206,-0.1206,-0.1206,-0.1206,-0.1206,-0.1206,-0.1642,-0.1578,-0.1574,-0.1476,-0.1461,-0.1375,-0.1352,-0.1318,-0.1329,-0.1308,-0.1338,-0.1397,-0.1403,-0.1447,-0.1328,-0.1251,-0.1234,-0.1181,-0.1218,-0.1321,-0.1345,-0.1368,-0.1359,-0.1142,-0.1142,-0.105,-0.105,-0.105]},{"header":{"parameterUnit":"m.s-1","parameterCategory":2,"la1":30.2991,"la2":30.254,"lo1":-89.0895,"lo2":-89.0444,"dy":0.0017,"dx":0.0017,"nx":28,"ny":28,"refTime":"2023-09-08T03:00:00:Z","depth":"0","parameterNumber":3,"parameterNumberName":"V-component_of_CURRENTS"},"data":[0,0,0,0,0,0,0,0,0,0,0,0,0,0,0,0,0,0,0,0,0,0,0,0,0,0,0,0,0,0,0,0,0,0,0,0,0,0,0,0,0,0,0,0,0,0,0,0,0,0,0,0,0,0,0,0,0,0,-0.0507,-0.0505,0,-0.0366,-0.0364,-0.0363,-0.0276,-0.0276,-0.0276,-0.0275,-0.0073,-0.0068,-0.0063,0,0,0,0,0,0,0,0,0,0,0,0,0,-0.0604,-0.0604,-0.0507,-0.0505,-0.0504,-0.0366,-0.0364,-0.0362,-0.0276,-0.0276,-0.0275,-0.0275,-0.0074,-0.0068,-0.0062,0,0,0,0,0,0,0,0,0,0,0,0,0,-0.0522,-0.0603,-0.0507,-0.0445,-0.0438,-0.0367,-0.0364,-0.0362,-0.0276,-0.0276,-0.0275,-0.0275,-0.0076,-0.0069,-0.0061,-0.0026,0,0,-0.0038,-0.0035,0,0,0,0,0,0,0,0,-0.0527,-0.0519,-0.0456,-0.0449,-0.0441,-0.0339,-0.0324,-0.0247,-0.0277,-0.0337,-0.0275,-0.0275,-0.0157,-0.0142,-0.0117,-0.0017,-0.0008,-0.0038,-0.0033,-0.003,-0.0028,0,0,0,0,0,0,0,-0.0533,-0.0524,-0.0451,-0.0454,-0.0445,-0.039,-0.0379,-0.0309,-0.025,-0.0332,-0.0325,-0.0311,-0.0152,-0.0125,-0.0112,-0.0005,-0.0038,-0.0031,-0.0026,-0.0024,0.012,0.012,0,0,0,0,0,0,-0.0558,-0.053,-0.0455,-0.0446,-0.0484,-0.0389,-0.0376,-0.0372,-0.0252,-0.0234,-0.0311,-0.0307,-0.0138,-0.0121,-0.0104,-0.0075,-0.003,-0.0023,-0.0018,0.0121,0.012,0.0119,0,0,0,0,0,0,-0.056,-0.0553,-0.0461,-0.0485,-0.0469,-0.0389,-0.0384,-0.0369,-0.0341,-0.0237,-0.0218,-0.0299,-0.0137,-0.0115,-0.0052,-0.0066,-0.0019,-0.0012,0.0122,0.0121,0.012,-0.0004,0,0,0,0,0,0,-0.0564,-0.0555,-0.0559,-0.0487,-0.0469,-0.0429,-0.0384,-0.0367,-0.0333,-0.0327,-0.022,-0.0201,-0.0135,-0.0064,-0.0045,-0.0055,-0.0007,0.0123,0.0121,0.012,0.0001,-0.0009,-0.0018,0,0,0,0,0,-0.0568,-0.0573,-0.0561,-0.0551,-0.0478,-0.043,-0.0416,-0.0355,-0.0334,-0.0327,-0.0259,-0.0204,-0.0059,-0.0058,-0.0035,-0.0043,0.0123,0.0122,0.012,0.0005,-0.0007,-0.0018,0,0,0,0,0,0,-0.0611,-0.0562,-0.0548,-0.0536,-0.0495,-0.0416,-0.04,-0.0364,-0.0305,-0.0298,-0.0204,-0.0181,-0.0137,-0.0072,-0.0074,-0.0007,0.0039,0.0041,-0.0057,-0.0067,-0.0077,-0.008,-0.0,0,0,0,0,0,-0.0628,-0.0622,-0.0567,-0.0559,-0.0544,-0.0477,-0.045,-0.0414,-0.0352,-0.0325,-0.0253,-0.018,-0.0125,-0.0083,-0.0023,0.0024,0.0079,0.0031,0.0021,0.0013,0.0025,0.0075,0.0071,0.0114,0.0114,0.0114,0,0,-0.064,-0.0614,-0.0609,-0.0568,-0.0531,-0.0512,-0.0459,-0.0427,-0.0409,-0.0312,-0.0266,-0.0211,-0.0123,-0.0082,-0.0055,-0.0026,0.0027,0.0011,0.0003,0.0021,0.0073,0.0069,0.0065,0.0113,0.0113,0.0114,0,0,-0.0663,-0.0645,-0.0649,-0.0623,-0.0579,-0.054,-0.0538,-0.0471,-0.0441,-0.0394,-0.0332,-0.0287,-0.0186,-0.0134,-0.0093,-0.0114,-0.0033,-0.0098,-0.0134,-0.0088,-0.0091,-0.0093,-0.0044,-0.004,-0.0094,-0.0094,-0.0094,0,-0.0683,-0.0681,-0.0641,-0.0638,-0.0621,-0.0561,-0.056,-0.052,-0.0441,-0.0419,-0.0395,-0.0276,-0.0211,-0.0159,-0.0169,-0.0136,-0.0091,-0.0102,-0.0101,-0.0102,-0.0102,-0.005,-0.0045,-0.01,-0.0099,-0.0099,-0.0098,0,-0.0705,-0.0706,-0.0705,-0.0687,-0.0665,-0.0654,-0.0602,-0.0579,-0.054,-0.0493,-0.0443,-0.0362,-0.0287,-0.0272,-0.022,-0.0191,-0.0156,-0.0131,-0.0077,-0.0114,-0.0057,-0.005,-0.0109,-0.0107,-0.0105,-0.0103,0,0,-0.0743,-0.0728,-0.0728,-0.0733,-0.0693,-0.0677,-0.0658,-0.0619,-0.0602,-0.054,-0.0509,-0.0434,-0.0391,-0.0341,-0.0282,-0.0237,-0.0212,-0.0185,-0.018,-0.0145,-0.0104,-0.0059,-0.0046,-0.0189,-0.0188,-0.0187,-0.0071,0,-0.0775,-0.0793,-0.0769,-0.078,-0.0785,-0.0738,-0.0723,-0.0681,-0.0632,-0.0587,-0.0515,-0.0463,-0.0416,-0.0386,-0.0339,-0.0234,-0.0194,-0.0245,-0.0065,-0.0059,-0.0022,-0.0036,-0.0009,0.0099,-0.0063,-0.0062,-0.0061,0,-0.0805,-0.0814,-0.0838,-0.0834,-0.0831,-0.0826,-0.0795,-0.0773,-0.0701,-0.0661,-0.0602,-0.0532,-0.0453,-0.0417,-0.0266,-0.0299,-0.0212,-0.0138,-0.0132,-0.0034,0.0001,0.0115,0.0121,0.0246,-0.0047,-0.0048,-0.0049,0,-0.0852,-0.086,-0.0885,-0.0883,-0.0866,-0.0868,-0.0854,-0.0798,-0.0776,-0.0706,-0.0672,-0.0574,-0.0507,-0.0399,-0.0241,-0.0252,-0.0068,-0.0065,0.0054,0.0058,0.0149,0.0159,0.0295,0.0029,0.0029,0.0028,0.0028,0,-0.0893,-0.0911,-0.0912,-0.0925,-0.0947,-0.0919,-0.0922,-0.089,-0.0837,-0.0802,-0.0715,-0.0653,-0.0497,-0.0369,-0.0248,-0.006,-0.0073,0.0057,0.0094,0.0105,0.011,0.0279,0.032,0.0033,0.0032,0.0031,0.003,0,-0.0932,-0.0935,-0.0966,-0.097,-0.097,-0.0987,-0.097,-0.0965,-0.091,-0.0859,-0.0838,-0.0696,-0.0524,-0.0361,-0.0159,-0.0054,0.019,0.017,0.0175,0.021,0.0421,0.0452,0.0645,0.0716,0.0313,0.0315,0.0316,0,-0.0952,-0.0974,-0.1002,-0.102,-0.1023,-0.1038,-0.1042,-0.1006,-0.0988,-0.0874,-0.0846,-0.0677,-0.0537,-0.0226,-0.0016,0.0206,0.029,0.0354,0.0333,0.0449,0.0512,0.0532,0.0579,0.0401,0.0403,0.0405,0.0406,0,-0.0986,-0.1,-0.1023,-0.1062,-0.1082,-0.1104,-0.1101,-0.1093,-0.1032,-0.0966,-0.0839,-0.0721,-0.0415,-0.0135,0.0152,0.0277,0.0445,0.0396,0.0522,0.0601,0.0631,0.0711,0.0307,0.0422,0.042,0.0419,0.0418,0.0417,-0.1003,-0.1031,-0.1062,-0.1096,-0.1127,-0.1147,-0.1147,-0.112,-0.1074,-0.0947,-0.0835,-0.0627,-0.024,0.0174,0.0329,0.0642,0.0594,0.0724,0.0756,0.077,0.0832,0.0462,0.061,0.061,0.0609,0.0609,0.0609,0,-0.101,-0.1043,-0.1085,-0.1128,-0.1165,-0.117,-0.1165,-0.1136,-0.1062,-0.0924,-0.0776,-0.035,0.0036,0.038,0.0819,0.0991,0.102,0.1068,0.1106,0.1139,0.0828,0.0825,0.102,0.102,0.102,0.102,0.102,0.102,-0.1012,-0.1053,-0.1079,-0.1141,-0.1169,-0.118,-0.1168,-0.1106,-0.1001,-0.075,-0.0511,-0.0326,0.0172,0.0877,0.128,0.1311,0.145,0.144,0.1513,0.1296,0.1266,0.1237,0.1246,0.1526,0.1527,0.1816,0.1819,0.1821]}],[{"header":{"parameterUnit":"m.s-1","parameterCategory":2,"la1":30.2991,"la2":30.254,"lo1":-89.0895,"lo2":-89.0444,"dy":0.0017,"dx":0.0017,"nx":28,"ny":28,"refTime":"2023-09-08T03:00:00:Z","depth":"2","parameterNumber":2,"parameterNumberName":"U-component_of_CURRENTS"},"data":[0,0,0,0,0,0,0,0,0,0,0,0,0,0,0,0,0,0,0,0,0,0,0,0,0,0,0,0,0,0,0,0,0,0,0,0,0,0,0,0,0,0,0,0,0,0,0,0,0,0,0,0,0,0,0,0,0,0,-0.2418,-0.2419,0,-0.2466,-0.2466,-0.2466,-0.2498,-0.2498,-0.2499,-0.2499,-0.2546,-0.2547,-0.2548,0,0,0,0,0,0,0,0,0,0,0,0,0,-0.2339,-0.234,-0.2418,-0.2419,-0.242,-0.2466,-0.2466,-0.2466,-0.2498,-0.2498,-0.2499,-0.25,-0.2546,-0.2547,-0.2548,0,0,0,0,0,0,0,0,0,0,0,0,0,-0.2375,-0.2341,-0.2418,-0.2444,-0.2448,-0.2466,-0.2466,-0.2466,-0.2497,-0.2498,-0.2499,-0.25,-0.2546,-0.2547,-0.2548,-0.2536,0,0,-0.2551,-0.2552,0,0,0,0,0,0,0,0,-0.2373,-0.2377,-0.2439,-0.2443,-0.2446,-0.2481,-0.2456,-0.2491,-0.2497,-0.2474,-0.25,-0.2501,-0.2527,-0.2529,-0.253,-0.2538,-0.254,-0.2551,-0.2552,-0.2552,-0.2553,0,0,0,0,0,0,0,-0.237,-0.2375,-0.2433,-0.2441,-0.2445,-0.2449,-0.2455,-0.2462,-0.2491,-0.2476,-0.2479,-0.2491,-0.2528,-0.2529,-0.2531,-0.2541,-0.2551,-0.2552,-0.2553,-0.2553,-0.2562,-0.2562,0,0,0,0,0,0,-0.2373,-0.2373,-0.2431,-0.2434,-0.2416,-0.245,-0.2457,-0.2465,-0.2491,-0.2497,-0.2491,-0.2493,-0.2527,-0.253,-0.2533,-0.253,-0.2552,-0.2553,-0.2554,-0.2562,-0.2562,-0.2561,0,0,0,0,0,0,-0.2371,-0.2378,-0.2429,-0.2408,-0.2416,-0.2451,-0.246,-0.2466,-0.2481,-0.2503,-0.2509,-0.2503,-0.2528,-0.2532,-0.2545,-0.2532,-0.2554,-0.2555,-0.2563,-0.2562,-0.2562,-0.2517,0,0,0,0,0,0,-0.2369,-0.2376,-0.2377,-0.2409,-0.2417,-0.2439,-0.246,-0.2466,-0.2488,-0.2492,-0.2515,-0.252,-0.2529,-0.2544,-0.2546,-0.2534,-0.2555,-0.2563,-0.2563,-0.2562,-0.2519,-0.2515,-0.2512,0,0,0,0,0,-0.2365,-0.2363,-0.2376,-0.2383,-0.2419,-0.2439,-0.2443,-0.2469,-0.2488,-0.2487,-0.2507,-0.252,-0.2541,-0.2544,-0.2547,-0.2535,-0.2564,-0.2563,-0.2562,-0.2521,-0.2516,-0.2512,0,0,0,0,0,0,-0.2327,-0.2367,-0.2382,-0.2392,-0.2415,-0.2446,-0.2448,-0.2473,-0.2487,-0.2493,-0.2517,-0.2522,-0.2523,-0.2539,-0.2542,-0.2536,-0.2553,-0.2553,-0.2521,-0.2517,-0.2513,-0.2497,-0.2556,0,0,0,0,0,-0.2319,-0.2327,-0.2368,-0.2372,-0.2384,-0.2418,-0.243,-0.2451,-0.2474,-0.2482,-0.2505,-0.252,-0.2518,-0.2528,-0.2531,-0.2534,-0.2526,-0.2528,-0.2524,-0.2521,-0.2509,-0.249,-0.2483,-0.2559,-0.2559,-0.2559,0,0,-0.2305,-0.2328,-0.2332,-0.2364,-0.2382,-0.2392,-0.2426,-0.2444,-0.245,-0.2483,-0.2496,-0.2507,-0.2515,-0.251,-0.2513,-0.2526,-0.2493,-0.2519,-0.2516,-0.2507,-0.2488,-0.248,-0.2474,-0.2558,-0.2558,-0.2558,0,0,-0.2277,-0.2301,-0.2298,-0.2318,-0.2352,-0.2373,-0.2382,-0.2423,-0.2435,-0.245,-0.2467,-0.247,-0.2491,-0.2484,-0.2483,-0.2463,-0.2469,-0.2474,-0.2447,-0.2428,-0.2421,-0.2415,-0.2384,-0.2376,-0.2478,-0.2478,-0.2478,0,-0.2257,-0.2265,-0.2298,-0.2304,-0.2318,-0.2365,-0.2368,-0.2382,-0.2422,-0.2429,-0.2449,-0.2459,-0.2468,-0.2448,-0.2439,-0.2452,-0.2444,-0.2462,-0.2421,-0.2415,-0.241,-0.238,-0.2371,-0.2476,-0.2476,-0.2476,-0.2476,0,-0.2229,-0.224,-0.2239,-0.2262,-0.2278,-0.2288,-0.2323,-0.234,-0.237,-0.2388,-0.2388,-0.2398,-0.2406,-0.2406,-0.2415,-0.2383,-0.239,-0.2413,-0.2429,-0.2399,-0.237,-0.2361,-0.2472,-0.2473,-0.2474,-0.2474,0,0,-0.2169,-0.2212,-0.221,-0.222,-0.226,-0.2271,-0.2281,-0.23,-0.2309,-0.2332,-0.2333,-0.2322,-0.2342,-0.2342,-0.2355,-0.2339,-0.2288,-0.2361,-0.2361,-0.2323,-0.2238,-0.2178,-0.2163,-0.231,-0.2309,-0.2308,-0.2228,0,-0.2134,-0.2139,-0.217,-0.2171,-0.2179,-0.2225,-0.2232,-0.2256,-0.2281,-0.2294,-0.2297,-0.2299,-0.2314,-0.2319,-0.2302,-0.2303,-0.2267,-0.2307,-0.2279,-0.2277,-0.2221,-0.2151,-0.2014,-0.1927,-0.222,-0.2219,-0.2218,0,-0.2089,-0.2104,-0.21,-0.214,-0.2147,-0.2152,-0.218,-0.2193,-0.222,-0.2241,-0.2246,-0.2264,-0.2244,-0.2263,-0.2222,-0.2253,-0.223,-0.2222,-0.222,-0.2171,-0.2201,-0.2007,-0.1901,-0.2204,-0.2205,-0.2206,-0.2207,0,-0.2024,-0.2052,-0.2049,-0.206,-0.2108,-0.2112,-0.2136,-0.217,-0.2182,-0.2203,-0.2217,-0.221,-0.2208,-0.2185,-0.2179,-0.22,-0.213,-0.2161,-0.2072,-0.2068,-0.1947,-0.1934,-0.2098,-0.2098,-0.2098,-0.2098,-0.2098,0,-0.197,-0.1965,-0.2019,-0.2015,-0.2014,-0.2066,-0.2066,-0.2096,-0.2133,-0.2131,-0.218,-0.2169,-0.219,-0.2169,-0.2155,-0.2081,-0.2107,-0.2035,-0.2032,-0.1927,-0.1914,-0.2163,-0.2172,-0.2095,-0.2096,-0.2096,-0.2097,0,-0.1885,-0.1922,-0.1921,-0.1969,-0.198,-0.1975,-0.2024,-0.2025,-0.208,-0.2079,-0.2084,-0.2126,-0.2096,-0.2104,-0.2065,-0.2038,-0.1986,-0.195,-0.1819,-0.1801,-0.194,-0.1947,-0.1827,-0.1824,-0.1822,-0.182,-0.1818,0,-0.1837,-0.183,-0.1871,-0.1868,-0.1882,-0.1897,-0.1903,-0.1974,-0.1983,-0.2036,-0.2021,-0.2022,-0.1989,-0.1925,-0.1876,-0.1812,-0.1894,-0.1652,-0.1654,-0.1896,-0.1907,-0.1918,-0.1929,-0.1474,-0.1469,-0.1466,-0.1463,0,-0.1742,-0.176,-0.1761,-0.1763,-0.1765,-0.1778,-0.18,-0.1807,-0.1878,-0.1891,-0.189,-0.1872,-0.182,-0.1695,-0.1633,-0.1583,-0.1657,-0.1573,-0.1838,-0.1574,-0.1559,-0.1572,-0.1594,-0.143,-0.1433,-0.1436,-0.1437,-0.1439,-0.1659,-0.1638,-0.1646,-0.1636,-0.1646,-0.1644,-0.1612,-0.1652,-0.1652,-0.1645,-0.1705,-0.164,-0.1623,-0.1453,-0.1367,-0.1311,-0.1428,-0.1374,-0.1387,-0.1403,-0.1387,-0.1369,-0.12,-0.1202,-0.1203,-0.1205,-0.1206,0,-0.1546,-0.1533,-0.152,-0.1503,-0.1472,-0.1522,-0.1522,-0.1475,-0.143,-0.1459,-0.1438,-0.1292,-0.1202,-0.1197,-0.1054,-0.1019,-0.1019,-0.0978,-0.0989,-0.1021,-0.105,-0.1018,-0.0732,-0.0731,-0.073,-0.0728,0,0,-0.1478,-0.1423,-0.142,-0.1331,-0.1321,-0.124,-0.1216,-0.1171,-0.1166,-0.1102,-0.1078,-0.1154,-0.1177,-0.0971,-0.0906,-0.08,-0.0905,-0.0755,-0.1136,-0.1181,-0.1209,-0.1276,-0.1263,0,0,0,0,0]},{"header":{"parameterUnit":"m.s-1","parameterCategory":2,"la1":30.2991,"la2":30.254,"lo1":-89.0895,"lo2":-89.0444,"dy":0.0017,"dx":0.0017,"nx":28,"ny":28,"refTime":"2023-09-08T03:00:00:Z","depth":"2","parameterNumber":3,"parameterNumberName":"V-component_of_CURRENTS"},"data":[0,0,0,0,0,0,0,0,0,0,0,0,0,0,0,0,0,0,0,0,0,0,0,0,0,0,0,0,0,0,0,0,0,0,0,0,0,0,0,0,0,0,0,0,0,0,0,0,0,0,0,0,0,0,0,0,0,0,-0.0353,-0.0352,0,-0.0245,-0.0244,-0.0242,-0.0172,-0.0171,-0.0171,-0.017,-0.0006,-0.0002,0.0002,0,0,0,0,0,0,0,0,0,0,0,0,0,-0.0443,-0.0442,-0.0353,-0.0352,-0.0351,-0.0245,-0.0244,-0.0242,-0.0172,-0.0171,-0.0171,-0.017,-0.0007,-0.0002,0.0002,0,0,0,0,0,0,0,0,0,0,0,0,0,-0.0377,-0.0442,-0.0354,-0.0302,-0.0297,-0.0245,-0.0243,-0.0242,-0.0172,-0.0171,-0.0171,-0.017,-0.0008,-0.0003,0.0003,0.0024,0,0,0.0021,0.0024,0,0,0,0,0,0,0,0,-0.0381,-0.0374,-0.0311,-0.0306,-0.0299,-0.022,-0.0214,-0.015,-0.0172,-0.022,-0.017,-0.017,-0.0072,-0.0061,-0.0044,0.0032,0.0039,0.0022,0.0025,0.0028,0.0029,0,0,0,0,0,0,0,-0.0386,-0.0378,-0.0311,-0.031,-0.0302,-0.0265,-0.0255,-0.0202,-0.0151,-0.0216,-0.021,-0.0197,-0.0069,-0.005,-0.004,0.0041,0.0021,0.0027,0.003,0.0033,0.0154,0.0153,0,0,0,0,0,0,-0.0401,-0.0382,-0.0314,-0.0308,-0.0338,-0.0264,-0.0254,-0.0247,-0.0153,-0.0138,-0.0198,-0.0195,-0.0061,-0.0047,-0.0034,0.0001,0.0028,0.0033,0.0036,0.0154,0.0154,0.0153,0,0,0,0,0,0,-0.0404,-0.0397,-0.0319,-0.0342,-0.0329,-0.0264,-0.0257,-0.0245,-0.0225,-0.014,-0.0124,-0.0189,-0.0059,-0.0042,0.0008,0.0008,0.0036,0.0041,0.0154,0.0154,0.0153,0.0068,0,0,0,0,0,0,-0.0407,-0.0398,-0.0402,-0.0343,-0.0328,-0.0295,-0.0257,-0.0244,-0.0218,-0.0212,-0.0127,-0.0111,-0.0057,-0.0001,0.0014,0.0017,0.0046,0.0155,0.0154,0.0154,0.0072,0.0065,0.0059,0,0,0,0,0,-0.0411,-0.0416,-0.0403,-0.0394,-0.0334,-0.0295,-0.0284,-0.0235,-0.0218,-0.0214,-0.0159,-0.0114,0.0006,0.0003,0.0021,0.0025,0.0155,0.0154,0.0154,0.0074,0.0066,0.006,0,0,0,0,0,0,-0.0455,-0.0408,-0.0392,-0.0383,-0.0346,-0.0283,-0.0274,-0.0243,-0.0197,-0.0192,-0.0116,-0.0096,-0.0055,-0.0005,-0.001,0.0058,0.0088,0.0091,0.0021,0.0015,0.0009,0.0002,0.0051,0,0,0,0,0,-0.0469,-0.0462,-0.041,-0.0405,-0.0391,-0.0337,-0.0315,-0.0284,-0.0234,-0.0214,-0.0156,-0.0095,-0.0044,-0.0009,0.0041,0.0082,0.0125,0.0096,0.009,0.0084,0.009,0.0142,0.0141,0.0151,0.0151,0.0151,0,0,-0.0483,-0.0458,-0.0453,-0.0415,-0.0384,-0.0366,-0.0322,-0.0297,-0.0278,-0.0203,-0.0165,-0.0117,-0.0041,-0.0,0.0024,0.0044,0.0101,0.0083,0.0078,0.0087,0.0141,0.014,0.0139,0.015,0.0151,0.0151,0,0,-0.0509,-0.0491,-0.0492,-0.0468,-0.0428,-0.0393,-0.0391,-0.0335,-0.0307,-0.0268,-0.0213,-0.0167,-0.0086,-0.0033,0.0006,-0.0002,0.006,0.0012,-0.0012,0.0037,0.0037,0.0037,0.0074,0.0078,0.0017,0.0017,0.0017,0,-0.0529,-0.0522,-0.0486,-0.0481,-0.0464,-0.0411,-0.0407,-0.0372,-0.0307,-0.0283,-0.0267,-0.0157,-0.0099,-0.0038,-0.0042,-0.0014,0.0019,0.0007,0.0029,0.003,0.0032,0.007,0.0076,0.0013,0.0014,0.0014,0.0014,0,-0.0549,-0.0546,-0.0546,-0.0523,-0.0502,-0.0491,-0.0441,-0.0419,-0.0384,-0.0339,-0.0284,-0.0212,-0.0142,-0.0122,-0.008,-0.0038,-0.0019,0.0005,0.0043,0.0025,0.0067,0.0074,0.0007,0.0009,0.001,0.0011,0,0,-0.0585,-0.0565,-0.0565,-0.0564,-0.0524,-0.0509,-0.0486,-0.0442,-0.0421,-0.0364,-0.0328,-0.025,-0.0211,-0.0166,-0.0111,-0.0064,-0.0032,-0.0029,-0.0024,0.0001,0.0068,0.0098,0.011,-0.0007,-0.0006,-0.0005,0.0085,0,-0.0611,-0.062,-0.0596,-0.0599,-0.0598,-0.0552,-0.0534,-0.0489,-0.0442,-0.0396,-0.032,-0.0268,-0.0227,-0.0198,-0.0146,-0.0055,-0.0013,-0.0059,0.0088,0.0093,0.0117,0.012,0.0102,0.0182,0.0093,0.0094,0.0095,0,-0.0634,-0.0637,-0.0651,-0.0637,-0.0632,-0.0626,-0.0588,-0.0563,-0.0488,-0.0451,-0.0387,-0.0323,-0.0241,-0.0212,-0.007,-0.0103,-0.0027,0.0038,0.0043,0.0111,0.0138,0.0191,0.02,0.0109,0.0108,0.0107,0.0106,0,-0.0675,-0.0672,-0.0689,-0.0684,-0.066,-0.0658,-0.0641,-0.0583,-0.0559,-0.0486,-0.0457,-0.0353,-0.0295,-0.0191,-0.0053,-0.0061,0.01,0.0109,0.0206,0.0208,0.0245,0.0249,0.0201,0.0201,0.02,0.02,0.02,0,-0.0706,-0.0718,-0.0714,-0.0723,-0.0736,-0.0705,-0.0702,-0.0667,-0.0614,-0.0581,-0.0492,-0.0437,-0.0286,-0.0172,-0.0061,0.0102,0.0098,0.0208,0.0239,0.0213,0.0213,0.0195,0.0193,0.0204,0.0203,0.0202,0.0202,0,-0.0742,-0.0741,-0.0763,-0.0759,-0.0758,-0.0771,-0.0752,-0.0744,-0.069,-0.0645,-0.0625,-0.049,-0.0338,-0.0184,0.0002,0.0099,0.0244,0.0299,0.0253,0.0278,0.0316,0.0309,0.0412,0.0414,0.0416,0.0417,0.0419,0,-0.0759,-0.0777,-0.0799,-0.0815,-0.0817,-0.0827,-0.083,-0.079,-0.0773,-0.0669,-0.0646,-0.0495,-0.0369,-0.009,0.0103,0.0304,0.0298,0.0399,0.0386,0.0321,0.0341,0.0331,0.0322,0.0393,0.0394,0.0395,0.0395,0,-0.0791,-0.0805,-0.0823,-0.0861,-0.088,-0.0896,-0.0894,-0.0887,-0.0825,-0.077,-0.0658,-0.0551,-0.0282,-0.0044,0.0212,0.0322,0.0364,0.042,0.0384,0.0339,0.031,0.0327,0.0317,0.0402,0.0401,0.0401,0.04,0.04,-0.0811,-0.0838,-0.0866,-0.0898,-0.0927,-0.0947,-0.0946,-0.0921,-0.088,-0.0768,-0.0668,-0.0483,-0.0262,0.0113,0.0292,0.0449,0.0443,0.0486,0.0481,0.0476,0.0455,0.043,0.0539,0.0539,0.054,0.054,0.054,0,-0.0821,-0.0854,-0.0893,-0.0933,-0.0969,-0.0974,-0.0968,-0.094,-0.0878,-0.0757,-0.0625,-0.0369,-0.0102,0.0114,0.0379,0.0536,0.0509,0.055,0.049,0.0484,0.0478,0.0454,0.0541,0.0541,0.0541,0.0542,0,0,-0.0827,-0.0867,-0.0889,-0.0951,-0.098,-0.0994,-0.0984,-0.0925,-0.0831,-0.0694,-0.0554,-0.0359,-0.0088,0.0101,0.0297,0.0431,0.041,0.0433,0.0418,0.0319,0.0311,0.0431,0.0387,0,0,0,0,0]}],[{"header":{"parameterUnit":"m.s-1","parameterCategory":2,"la1":30.2991,"la2":30.254,"lo1":-89.0895,"lo2":-89.0444,"dy":0.0017,"dx":0.0017,"nx":28,"ny":28,"refTime":"2023-09-08T03:00:00:Z","depth":"4","parameterNumber":2,"parameterNumberName":"U-component_of_CURRENTS"},"data":[0,0,0,0,0,0,0,0,0,0,0,0,0,0,0,0,0,0,0,0,0,0,0,0,0,0,0,0,0,0,0,0,0,0,0,0,0,0,0,0,0,0,0,0,0,0,0,0,0,0,0,0,0,0,0,0,0,0,-0.1441,-0.1441,0,-0.1465,-0.1465,-0.1466,-0.1498,-0.1498,-0.1499,-0.1499,-0.1542,-0.1543,-0.1544,0,0,0,0,0,0,0,0,0,0,0,0,0,-0.1463,-0.1462,-0.144,-0.1441,-0.1441,-0.1465,-0.1465,-0.1466,-0.1498,-0.1499,-0.1499,-0.15,-0.1542,-0.1543,-0.1544,0,0,0,0,0,0,0,0,0,0,0,0,0,-0.1467,-0.1462,-0.144,-0.146,-0.1462,-0.1465,-0.1465,-0.1466,-0.1498,-0.1499,-0.1499,-0.15,-0.1542,-0.1543,-0.1544,-0.1535,0,0,-0.1547,-0.1548,0,0,0,0,0,0,0,0,-0.1467,-0.1466,-0.1457,-0.1458,-0.1461,-0.1479,-0.1489,-0.149,-0.1498,-0.1485,-0.1499,-0.15,-0.1522,-0.1525,-0.1528,-0.1537,-0.1539,-0.1547,-0.1548,-0.1548,-0.1549,0,0,0,0,0,0,0,-0.1467,-0.1466,-0.1451,-0.1457,-0.1459,-0.1481,-0.1482,-0.1489,-0.1499,-0.1486,-0.1488,-0.149,-0.1523,-0.1527,-0.1529,-0.154,-0.1547,-0.1548,-0.1549,-0.1549,-0.161,-0.1611,0,0,0,0,0,0,-0.1459,-0.1465,-0.145,-0.1451,-0.1465,-0.148,-0.1481,-0.1473,-0.1499,-0.1504,-0.1489,-0.1491,-0.1525,-0.1528,-0.1531,-0.1601,-0.1548,-0.1549,-0.155,-0.1609,-0.161,-0.1611,0,0,0,0,0,0,-0.146,-0.1457,-0.1449,-0.1459,-0.146,-0.1478,-0.1469,-0.1473,-0.1509,-0.1501,-0.1507,-0.1525,-0.1526,-0.153,-0.1565,-0.1599,-0.155,-0.1551,-0.1608,-0.161,-0.1611,-0.1689,0,0,0,0,0,0,-0.146,-0.1457,-0.147,-0.1458,-0.1459,-0.1473,-0.1468,-0.1473,-0.1507,-0.1511,-0.1534,-0.1536,-0.1526,-0.1564,-0.1566,-0.16,-0.1551,-0.1607,-0.1609,-0.161,-0.1686,-0.1693,-0.17,0,0,0,0,0,-0.146,-0.1474,-0.147,-0.1469,-0.1468,-0.1474,-0.1477,-0.1493,-0.1508,-0.1529,-0.1546,-0.1537,-0.1577,-0.1566,-0.1568,-0.1603,-0.1606,-0.1608,-0.161,-0.1682,-0.1692,-0.17,0,0,0,0,0,0,-0.1493,-0.1478,-0.1474,-0.1482,-0.1486,-0.148,-0.1507,-0.1514,-0.1543,-0.1559,-0.1553,-0.1557,-0.1599,-0.1588,-0.1576,-0.1624,-0.1589,-0.1592,-0.1643,-0.1652,-0.1659,-0.1646,-0.1552,0,0,0,0,0,-0.1502,-0.1509,-0.1495,-0.1506,-0.1511,-0.1515,-0.1529,-0.1537,-0.1549,-0.1565,-0.1581,-0.1594,-0.1604,-0.162,-0.1625,-0.1656,-0.1622,-0.1678,-0.1685,-0.1691,-0.1682,-0.1665,-0.1669,-0.1619,-0.1619,-0.1619,0,0,-0.1517,-0.1512,-0.1516,-0.1515,-0.1522,-0.1536,-0.1527,-0.1555,-0.1578,-0.1564,-0.162,-0.1625,-0.1617,-0.1651,-0.1668,-0.1652,-0.1689,-0.1694,-0.17,-0.1687,-0.1667,-0.1672,-0.1676,-0.162,-0.162,-0.162,0,0,-0.1538,-0.1547,-0.1554,-0.1564,-0.1577,-0.158,-0.1595,-0.1608,-0.1631,-0.1671,-0.1665,-0.169,-0.1719,-0.1714,-0.1714,-0.1763,-0.1728,-0.1773,-0.1806,-0.179,-0.1794,-0.1797,-0.1764,-0.1763,-0.1779,-0.1779,-0.1779,0,-0.1556,-0.1555,-0.1562,-0.1574,-0.1586,-0.1603,-0.1616,-0.1643,-0.1671,-0.1683,-0.1703,-0.1733,-0.1743,-0.1755,-0.1779,-0.1781,-0.1757,-0.1777,-0.1799,-0.1801,-0.1803,-0.1768,-0.1766,-0.1783,-0.1783,-0.1782,-0.1782,0,-0.1565,-0.1584,-0.1597,-0.161,-0.1632,-0.1651,-0.1674,-0.1711,-0.1746,-0.1757,-0.1796,-0.1809,-0.1815,-0.1835,-0.183,-0.1846,-0.1821,-0.1811,-0.1777,-0.1813,-0.1774,-0.1771,-0.1789,-0.1787,-0.1786,-0.1785,0,0,-0.1531,-0.1588,-0.1592,-0.1607,-0.1651,-0.166,-0.1715,-0.1738,-0.1763,-0.1814,-0.1832,-0.1874,-0.1876,-0.1874,-0.1872,-0.1875,-0.1882,-0.1858,-0.1855,-0.1824,-0.1835,-0.1724,-0.1709,-0.188,-0.188,-0.188,-0.1805,0,-0.1526,-0.1556,-0.1587,-0.1627,-0.1642,-0.1685,-0.1725,-0.1762,-0.18,-0.1831,-0.1853,-0.1875,-0.1891,-0.1899,-0.1908,-0.1885,-0.1876,-0.1902,-0.1804,-0.1801,-0.1698,-0.1702,-0.188,-0.1802,-0.1801,-0.18,-0.18,0,-0.1501,-0.1528,-0.1563,-0.1622,-0.1631,-0.1667,-0.1717,-0.1754,-0.1804,-0.1833,-0.1862,-0.1876,-0.1894,-0.1902,-0.1881,-0.1898,-0.1871,-0.1855,-0.1851,-0.1712,-0.1682,-0.1757,-0.1793,-0.1794,-0.1794,-0.1795,-0.1795,0,-0.1443,-0.1503,-0.1532,-0.1553,-0.1625,-0.1654,-0.1694,-0.1751,-0.1778,-0.1827,-0.1847,-0.1867,-0.1877,-0.1861,-0.1849,-0.1863,-0.181,-0.1816,-0.1683,-0.1675,-0.1764,-0.1761,-0.1783,-0.1783,-0.1783,-0.1784,-0.1784,0,-0.1398,-0.1423,-0.1514,-0.1527,-0.1561,-0.1625,-0.1662,-0.1706,-0.1761,-0.1773,-0.1837,-0.1834,-0.1871,-0.1853,-0.1835,-0.1739,-0.1792,-0.1672,-0.1644,-0.1799,-0.1802,-0.1761,-0.176,-0.1781,-0.1781,-0.1782,-0.1782,0,-0.1321,-0.1383,-0.1421,-0.1507,-0.1536,-0.1559,-0.1642,-0.1657,-0.1728,-0.1744,-0.1759,-0.1808,-0.1776,-0.1787,-0.175,-0.1698,-0.1633,-0.1585,-0.1737,-0.1721,-0.151,-0.1514,-0.1415,-0.141,-0.1406,-0.1403,-0.14,0,-0.128,-0.1296,-0.1395,-0.1417,-0.1459,-0.1512,-0.1538,-0.1625,-0.1639,-0.1703,-0.1689,-0.1699,-0.1712,-0.1564,-0.1595,-0.1526,-0.1515,-0.1468,-0.1502,-0.1488,-0.1471,-0.1481,-0.1489,-0.1394,-0.1393,-0.1392,-0.1391,0,-0.12,-0.1251,-0.1283,-0.1334,-0.1372,-0.1408,-0.1457,-0.1457,-0.1535,-0.1614,-0.1568,-0.154,-0.1499,-0.1469,-0.1426,-0.1385,-0.1495,-0.1427,-0.1436,-0.1467,-0.1462,-0.1451,-0.1464,-0.1377,-0.1379,-0.138,-0.1381,0,-0.114,-0.1143,-0.1197,-0.1226,-0.1276,-0.1282,-0.1326,-0.1333,-0.1359,-0.144,-0.1412,-0.1428,-0.1473,-0.1392,-0.1351,-0.1303,-0.1285,-0.1247,-0.1265,-0.128,-0.1273,-0.1249,-0.1057,0,0,0,0,0,-0.1071,-0.1061,-0.1084,-0.1107,-0.1154,-0.1183,-0.1256,-0.1302,-0.1379,-0.1305,-0.1359,-0.1313,-0.1252,-0.1263,-0.1181,-0.1286,-0.1292,-0.1185,-0.126,-0.1301,-0.1317,-0.1323,0,0,0,0,0,0,-0.102,-0.1036,-0.1042,-0.1002,-0.0996,-0.103,-0.1073,-0.1131,-0.1105,-0.119,-0.1162,-0.1224,-0.1185,-0.1268,-0.1148,-0.115,-0.1168,-0.1204,-0.12,-0.1293,-0.1307,-0.132,-0.1331,0,0,0,0,0]},{"header":{"parameterUnit":"m.s-1","parameterCategory":2,"la1":30.2991,"la2":30.254,"lo1":-89.0895,"lo2":-89.0444,"dy":0.0017,"dx":0.0017,"nx":28,"ny":28,"refTime":"2023-09-08T03:00:00:Z","depth":"4","parameterNumber":3,"parameterNumberName":"V-component_of_CURRENTS"},"data":[0,0,0,0,0,0,0,0,0,0,0,0,0,0,0,0,0,0,0,0,0,0,0,0,0,0,0,0,0,0,0,0,0,0,0,0,0,0,0,0,0,0,0,0,0,0,0,0,0,0,0,0,0,0,0,0,0,0,-0.0249,-0.0249,0,-0.0199,-0.0198,-0.0198,-0.0163,-0.0162,-0.0162,-0.0162,-0.0088,-0.0087,-0.0085,0,0,0,0,0,0,0,0,0,0,0,0,0,-0.0288,-0.0288,-0.0249,-0.0249,-0.0248,-0.0199,-0.0198,-0.0198,-0.0163,-0.0162,-0.0162,-0.0162,-0.0089,-0.0087,-0.0085,0,0,0,0,0,0,0,0,0,0,0,0,0,-0.0258,-0.0288,-0.0249,-0.0224,-0.0222,-0.0199,-0.0198,-0.0197,-0.0163,-0.0162,-0.0162,-0.0161,-0.009,-0.0087,-0.0085,-0.0078,0,0,-0.0077,-0.0076,0,0,0,0,0,0,0,0,-0.026,-0.0257,-0.0229,-0.0226,-0.0223,-0.0186,-0.0185,-0.0156,-0.0163,-0.0185,-0.0162,-0.0161,-0.0119,-0.0114,-0.0106,-0.0075,-0.0072,-0.0077,-0.0075,-0.0074,-0.0073,0,0,0,0,0,0,0,-0.0262,-0.0259,-0.023,-0.0228,-0.0225,-0.0206,-0.0202,-0.0179,-0.0155,-0.0183,-0.0181,-0.0175,-0.0117,-0.0109,-0.0104,-0.007,-0.0077,-0.0075,-0.0073,-0.0072,-0.0007,-0.0006,0,0,0,0,0,0,-0.027,-0.0261,-0.0231,-0.0228,-0.024,-0.0206,-0.0201,-0.0199,-0.0156,-0.0149,-0.0175,-0.0173,-0.0114,-0.0107,-0.0102,-0.0069,-0.0074,-0.0072,-0.007,-0.0007,-0.0006,-0.0006,0,0,0,0,0,0,-0.0271,-0.0268,-0.0233,-0.0243,-0.0237,-0.0206,-0.0204,-0.0198,-0.019,-0.015,-0.0142,-0.0173,-0.0113,-0.0105,-0.0081,-0.0067,-0.0071,-0.0068,-0.0007,-0.0007,-0.0006,-0.0018,0,0,0,0,0,0,-0.0272,-0.0269,-0.0274,-0.0244,-0.0237,-0.0223,-0.0204,-0.0197,-0.0186,-0.0184,-0.0145,-0.0138,-0.0112,-0.0085,-0.0079,-0.0063,-0.0066,-0.0007,-0.0007,-0.0006,-0.0018,-0.0018,-0.0018,0,0,0,0,0,-0.0274,-0.0281,-0.0274,-0.0271,-0.0244,-0.0223,-0.0218,-0.0194,-0.0187,-0.0185,-0.0158,-0.0139,-0.0078,-0.0083,-0.0076,-0.0059,-0.0008,-0.0007,-0.0006,-0.0018,-0.0018,-0.0018,0,0,0,0,0,0,-0.0302,-0.0277,-0.0269,-0.0269,-0.025,-0.0217,-0.0216,-0.0199,-0.0178,-0.0177,-0.0139,-0.013,-0.0103,-0.0084,-0.0091,-0.004,-0.0038,-0.0036,-0.0049,-0.0049,-0.0049,-0.0059,-0.0064,0,0,0,0,0,-0.0311,-0.0311,-0.0282,-0.0284,-0.0276,-0.0249,-0.0239,-0.0223,-0.0198,-0.0188,-0.0159,-0.0128,-0.0095,-0.0076,-0.005,-0.0025,-0.0005,-0.0009,-0.0009,-0.0009,-0.0012,0.0036,0.004,-0.0004,-0.0004,-0.0004,0,0,-0.0324,-0.0311,-0.0311,-0.0291,-0.0276,-0.0265,-0.0242,-0.0231,-0.0217,-0.0183,-0.0161,-0.0131,-0.009,-0.0059,-0.0044,-0.004,0.0012,-0.0009,-0.0009,-0.0012,0.0037,0.0042,0.0046,-0.0004,-0.0004,-0.0004,0,0,-0.0344,-0.0338,-0.034,-0.0326,-0.0305,-0.0285,-0.0283,-0.0252,-0.0234,-0.0212,-0.0177,-0.0139,-0.0102,-0.0057,-0.0032,-0.0019,0.0006,-0.0013,-0.0015,0.0032,0.0036,0.004,0.0062,0.0068,-0.0009,-0.0009,-0.0009,0,-0.036,-0.0358,-0.0338,-0.0335,-0.0325,-0.0295,-0.0291,-0.0269,-0.0232,-0.0213,-0.0209,-0.0132,-0.0096,-0.0037,-0.003,-0.0017,-0.0001,-0.0017,0.0032,0.0037,0.0041,0.0062,0.0069,-0.0009,-0.0009,-0.0009,-0.0009,0,-0.0374,-0.0374,-0.0376,-0.036,-0.0348,-0.0342,-0.0307,-0.0291,-0.0269,-0.0237,-0.0187,-0.0137,-0.0088,-0.0065,-0.0043,0.0011,0.0008,0.0023,0.0033,0.0045,0.0066,0.0073,-0.001,-0.001,-0.001,-0.0009,0,0,-0.0397,-0.0387,-0.0389,-0.0387,-0.0361,-0.0352,-0.033,-0.0293,-0.0275,-0.0232,-0.0199,-0.0128,-0.01,-0.007,-0.0028,0.0018,0.0065,0.0028,0.0031,0.0048,0.0147,0.0135,0.0142,0.0087,0.0088,0.0089,0.0146,0,-0.0412,-0.0419,-0.0403,-0.0405,-0.0402,-0.0372,-0.0354,-0.0318,-0.0282,-0.0244,-0.0175,-0.0135,-0.0101,-0.0078,-0.0024,0.0041,0.0084,0.0046,0.0134,0.0136,0.0124,0.0151,0.0094,0.0152,0.0153,0.0155,0.0155,0,-0.0423,-0.0426,-0.0437,-0.0425,-0.0421,-0.0419,-0.0386,-0.0365,-0.0302,-0.0273,-0.0215,-0.0167,-0.0087,-0.0069,0.0053,0.0023,0.008,0.013,0.0134,0.0132,0.0138,0.014,0.0169,0.0168,0.0167,0.0166,0.0165,0,-0.0446,-0.0445,-0.0458,-0.0455,-0.0438,-0.0438,-0.0427,-0.0378,-0.0359,-0.0296,-0.0277,-0.0178,-0.0136,-0.0043,0.006,0.0056,0.0183,0.0194,0.0237,0.0236,0.0234,0.0229,0.0278,0.0278,0.0278,0.0278,0.0277,0,-0.0457,-0.0467,-0.0477,-0.0484,-0.0497,-0.0474,-0.0474,-0.0445,-0.0404,-0.0379,-0.03,-0.0259,-0.0128,-0.0039,0.0053,0.0165,0.0182,0.0239,0.0258,0.0225,0.0219,0.0238,0.0233,0.028,0.0279,0.0279,0.0278,0,-0.0474,-0.0481,-0.0502,-0.0507,-0.0513,-0.0526,-0.0523,-0.0516,-0.0475,-0.0443,-0.0428,-0.0318,-0.02,-0.0072,0.0081,0.0148,0.026,0.0295,0.0235,0.0248,0.028,0.0273,0.0347,0.0347,0.0347,0.0347,0.0347,0,-0.0479,-0.0495,-0.0532,-0.0554,-0.0564,-0.058,-0.0589,-0.056,-0.0547,-0.0473,-0.0456,-0.0345,-0.026,-0.0052,0.0077,0.0248,0.0273,0.0318,0.0316,0.028,0.0291,0.0284,0.0277,0.0348,0.0348,0.0348,0.0348,0,-0.0491,-0.0518,-0.0539,-0.0587,-0.0617,-0.0638,-0.0646,-0.0638,-0.0592,-0.0565,-0.0463,-0.0345,-0.0214,-0.0051,0.0079,0.0203,0.0284,0.032,0.0321,0.032,0.0282,0.0291,0.0284,0.0348,0.0348,0.0348,0.0348,0,-0.0506,-0.0532,-0.057,-0.0607,-0.0653,-0.0674,-0.0674,-0.0642,-0.062,-0.0531,-0.05,-0.0347,-0.0256,-0.0074,0.0049,0.0166,0.0196,0.0227,0.0233,0.0234,0.0186,0.0121,0.0158,0,0,0,0,0,-0.0507,-0.0537,-0.058,-0.0625,-0.0673,-0.0691,-0.0697,-0.0685,-0.0645,-0.0578,-0.0532,-0.0403,-0.0201,-0.011,0.0007,0.004,0.0202,0.0178,0.0237,0.0352,0.0351,0.0314,0,0,0,0,0,0,-0.0511,-0.0555,-0.0577,-0.0631,-0.0661,-0.0702,-0.0706,-0.0679,-0.0626,-0.0571,-0.0458,-0.0391,-0.0194,-0.0271,0.0003,0.0039,0.0089,0.0276,0.0278,0.0352,0.0352,0.0351,0.0312,0,0,0,0,0]}]]